Defiance, OH

12:15 AM EDT on August 20, 2017 (GMT -0400)
Defiance Memorial

Weather History for KDFI - September, 2012

Change the Weather History Date:

Thursday, September 13, 2012

  Actual Average Record
Temperature  
Mean Temperature 71 °F -  
Max Temperature 84 °F 76 °F 94 °F (1939)
Min Temperature 60 °F 53 °F 34 °F (1964)
Cooling Degree Days 6    
Growing Degree Days 21 (Base 50)    
Moisture  
Dew Point 57 °F    
Average Humidity 62    
Maximum Humidity 87    
Minimum Humidity 35    
Precipitation  
Precipitation 0.00 in - - ()
Sea Level Pressure  
Sea Level Pressure 30.22 in    
Wind  
Wind Speed 3 mph (SW)    
Max Wind Speed 9 mph    
Max Gust Speed 17 mph    
Visibility 10 miles    
Events      
Averages and records for this station are not official NWS values.
T = Trace of Precipitation, MM = Missing Value Source: NWS Daily Summary

Daily Weather History Graph

Daily Weather History Graph

Search for Another Location

Airport or City:

Trip Planner

Search our weather history database for the weather conditions in past years. The results will help you decide how hot, cold, wet, or windy it might be!

Date:

Astronomy

Sep. 13, 2012 Rise Set
Actual Time 7:16 AM EDT 7:49 PM EDT
Civil Twilight 6:48 AM EDT 8:17 PM EDT
Nautical Twilight 6:15 AM EDT 8:50 PM EDT
Astronomical Twilight 5:42 AM EDT 9:23 PM EDT
Moon 4:33 AM EDT (9/13) 6:12 PM EDT (9/13)
Length of Visible Light 13h 28m
Length of Day
12h 32m
Waning Crescent, 7% of the Moon is Illuminated
Sep 13
Waning Crescent
Sep 15
New
Sep 22
First Quarter
Sep 29
Full
Oct 8
Last Quarter

Hourly Weather History & Observations

Time (EDT) Temp. Heat Index Dew Point Humidity Pressure Visibility Wind Dir Wind Speed Gust Speed Precip Events Conditions
12:53 AM 62.1 °F - 57.0 °F 84% 30.21 in 10.0 mi South 3.5 mph - N/A   Clear
1:53 AM 60.1 °F - 55.9 °F 86% 30.22 in 10.0 mi Calm Calm - N/A   Clear
2:53 AM 60.1 °F - 55.9 °F 86% 30.22 in 10.0 mi Calm Calm - N/A   Scattered Clouds
3:53 AM 61.0 °F - 57.0 °F 87% 30.22 in 10.0 mi Calm Calm - N/A   Mostly Cloudy
4:53 AM 63.0 °F - 57.9 °F 84% 30.22 in 10.0 mi Calm Calm - N/A   Overcast
5:53 AM 64.0 °F - 57.9 °F 80% 30.24 in 10.0 mi Calm Calm - N/A   Overcast
6:53 AM 64.9 °F - 59.0 °F 81% 30.25 in 10.0 mi Calm Calm - N/A   Overcast
7:53 AM 66.0 °F - 60.1 °F 81% 30.26 in 8.0 mi SW 4.6 mph - N/A   Overcast
8:53 AM 68.0 °F - 61.0 °F 78% 30.27 in 10.0 mi SSW 3.5 mph - N/A   Overcast
9:53 AM 72.0 °F - 60.1 °F 66% 30.27 in 10.0 mi WSW 4.6 mph - N/A   Overcast
10:53 AM 73.9 °F - 59.0 °F 59% 30.27 in 10.0 mi SSW 5.8 mph - N/A   Overcast
11:53 AM 75.9 °F - 57.9 °F 54% 30.27 in 10.0 mi SW 5.8 mph - N/A   Mostly Cloudy
12:53 PM 80.1 °F 80.6 °F 57.9 °F 47% 30.25 in 10.0 mi Variable 6.9 mph - N/A   Clear
1:53 PM 82.0 °F 81.4 °F 55.0 °F 39% 30.23 in 10.0 mi SW 8.1 mph 17.3 mph N/A   Partly Cloudy
2:53 PM 82.0 °F 81.2 °F 53.1 °F 37% 30.21 in 10.0 mi SW 6.9 mph - N/A   Mostly Cloudy
3:53 PM 82.0 °F - 52.0 °F 35% 30.19 in 10.0 mi SSW 9.2 mph - N/A   Mostly Cloudy
4:53 PM 81.0 °F - 51.1 °F 35% 30.19 in 10.0 mi SW 9.2 mph 17.3 mph N/A   Mostly Cloudy
5:53 PM 81.0 °F 80.5 °F 54.0 °F 39% 30.18 in 10.0 mi SW 8.1 mph - N/A   Mostly Cloudy
6:53 PM 79.0 °F - 53.1 °F 40% 30.18 in 10.0 mi SSW 6.9 mph - N/A   Clear
7:53 PM 75.9 °F - 54.0 °F 46% 30.19 in 10.0 mi SSW 3.5 mph - N/A   Overcast
8:53 PM 73.0 °F - 55.0 °F 53% 30.19 in 10.0 mi South 3.5 mph - N/A   Mostly Cloudy
9:53 PM 68.0 °F - 57.0 °F 68% 30.19 in 10.0 mi Calm Calm - N/A   Clear
10:53 PM 70.0 °F - 57.0 °F 63% 30.20 in 10.0 mi WNW 3.5 mph - N/A   Overcast
11:53 PM 69.1 °F - 59.0 °F 70% 30.22 in 10.0 mi North 5.8 mph - N/A   Mostly Cloudy